Location: La Fredeussais
(48.1780°N, 1.3980°W)
Time: 15:46:23
(UTC+00:00)

Cosmos 1666 - Pass Details

Date: 09 May 2021
Orbit: 496 x 518 km, 82.5° (Epoch: 24 June)

Event Time Altitude Azimuth Distance (km) Brightness Sun altitude
Rises 21:27:56 0° 353° (N) 2,606 7.3 -15.8°
Reaches altitude 10° 21:30:06 10° 358° (N) 1,714 6.2 -16.0°
Maximum altitude 21:33:49 59° 78° (ENE) 584 2.7 -16.4°
Enters shadow 21:35:01 37° 139° (SE) 785 3.1 -16.5°
